Weather Roundup
Issued by NWS Corpus Christi, TX

Home | Current Version | Previous Version | Text Only | Print | Product List | Glossary On
Versions: 1 2 3 4 5 6 7 8 9 10 11 12 13 14 15 16 17 18 19 20 21 22 23 24 25 26 27 28 29 30 31 32 33 34 35 36 37 38 39 40 41 42 43 44 45 46 47 48 49 50
000
ASUS44 KCRP 202310
HRRCRP

SOUTH TEXAS REGIONAL WEATHER ROUNDUP
NATIONAL WEATHER SERVICE CORPUS CHRISTI TX
600 PM CDT SUN MAY 20 2018


TXZ229>244-210000-
...CORPUS CHRISTI AREA OBSERVATIONS...

CITY           SKY/WX    TMP DP  RH WIND       PRES   REMARKS
CORPUS CHRISTI PTSUNNY   86  73  65 SE18      29.88F HX  93
NAS CORPUS CHR MOSUNNY   86  76  71 SE22      29.89F HX  96
ROCKPORT       MOSUNNY   84  74  71 SE16      29.92S HX  91
KINGSVILLE ARP FAIR      90  73  58 E17       29.86S HX  98
KINGSVILLE NAS PTSUNNY   89  72  56 E17G25    29.86F HX  96
ALICE          MOSUNNY   87  69  54 SE17G24   29.86S HX  91
$$

...VICTORIA AREA OBSERVATIONS...

CITY           SKY/WX    TMP DP  RH WIND       PRES   REMARKS
PORT LAVACA    MOSUNNY   83  73  69 E12       29.95R
VICTORIA       CLOUDY    88  70  55 SE15      29.93F HX  93
BEEVILLE       PTSUNNY   88  67  50 SE15G23   29.88F HX  91
PLEASANTON     TSTM      70  66  85 N21G56    29.97R
SAN ANTONIO    TSTM      70  66  87 W18G32    30.04R
$$

...LAREDO AREA OBSERVATIONS...

CITY           SKY/WX    TMP DP  RH WIND       PRES   REMARKS
LAREDO         CLOUDY    94  65  38 SE9       29.83F HX  96
COTULLA        CLOUDY    71  68  90 NE22G30   29.92R
DEL RIO        CLOUDY    81  66  60 E6        29.89F
MCALLEN        MOSUNNY   94  72  48 SE17      29.83R HX 102
HEBBRONVILLE   PTSUNNY   90  65  43 E20       29.85S HX  92
$$

...OTHER TEXAS OBSERVATIONS...

CITY           SKY/WX    TMP DP  RH WIND       PRES   REMARKS
BROWNSVILLE    FAIR      88  77  69 SE16      29.86R HX 100
HOUSTON        CLOUDY    78  75  90 W18G26    30.01R THUNDER
COL. STATION   LGT RAIN  70  70 100 E9G21     29.95F
AUSTIN         CLOUDY    74  69  85 SE3       29.98R
WACO           CLOUDY    74  67  78 NE6       29.99S
FORT WORTH     CLOUDY    79  64  60 SW9       29.97F
WICHITA FALLS  PTSUNNY   76  60  57 NE5       30.02F
LUBBOCK        MOSUNNY   70  56  61 SE13      30.08F
EL PASO        MOSUNNY   87  43  21 E10G21    29.92F
$$

...MARINE OBSERVATIONS...

STATION/POSITION TIME  SKY/WX   TEMP    WIND        PRES    VSBY  WAVE   SWELL
                                AIR SEA DIR/SP/G                  HT/PER HT/PER
                 (UTC)          (F)     (DEG/KT/KT) (MB)    (MI)  (FT/S) (FT/S)
PORT ARANSAS     2300            80 83   90/ 15/ 16 1012.9F
BUOY 90 E PORT A 2250            81 80  100/ 12/ 14 1013.7F         4/ 7   3/ 7
BUOY 200 E PT IS 2250            81 81  120/ 12/ 14 1013.3R         4/ 7   3/ 7
BUOY 15 E GALVES NOT AVBL
$$




USA.gov is the U.S. government's official web portal to all federal, state and local government web resources and services.